Location: Newark
(45.4422°N, 16.2769°E)
Time: 22:40:54
(UTC+00:00)

Tiros 1 despin weight - Pass Details

Date: 20 December 2019
Orbit: 594 x 642 km, 48.2° (Epoch: 24 January)

Event Time Altitude Azimuth Distance (km) Brightness Sun altitude
Rises 04:12:54 0° 286° (WNW) 2,896 - -23.1°
Reaches altitude 10° 04:15:15 10° 288° (WNW) 1,980 - -22.7°
Exits shadow 04:19:13 64° 317° (NW) 678 ? -22.1°
Maximum altitude 04:19:48 75° 15° (NNE) 634 ? -22.0°
Drops below altitude 10° 04:24:16 10° 101° (E) 1,946 ? -21.2°
Sets 04:26:33 0° 103° (ESE) 2,841 ? -20.8°
